Weather History for Cook, MN

Change the Weather History Date:

Wednesday, October 3, 2012

  Actual Average Record
Temperature  
Mean Temperature 54 °F -  
Max Temperature 71 °F 55 °F 78 °F (2011)
Min Temperature 37 °F 34 °F 19 °F (1999)
Degree Days  
Heating Degree Days 11    
Growing Degree Days 4 (Base 50)    
Moisture  
Dew Point 39 °F    
Average Humidity 55    
Maximum Humidity 87    
Minimum Humidity 25    
Precipitation  
Precipitation 0.00 in - - ()
Sea Level Pressure  
Sea Level Pressure 29.89 in    
Wind  
Wind Speed 3 mph (West)    
Max Wind Speed 7 mph    
Max Gust Speed -    
Visibility 8 miles    
Events      
Averages and records for this station are not official NWS values.
T = Trace of Precipitation, MM = Missing Value Source: NWS Daily Summary

Daily Weather History Graph

Daily Weather History Graph

Search for Another Location

Airport:

Trip Planner

Search our weather history database for the weather conditions in past years. The results will help you decide how hot, cold, wet, or windy it might be!

Date:

Astronomy

Oct. 03, 2012 Rise Set
Actual Time 7:13 AM CDT 6:44 PM CDT
Civil Twilight 6:42 AM CDT 7:15 PM CDT
Nautical Twilight 6:06 AM CDT 7:51 PM CDT
Astronomical Twilight 5:30 AM CDT 8:27 PM CDT
Moon 8:18 PM CDT (10/3) 10:55 AM CDT (10/3)
Length of Visible Light 12h 33m
Length of Day
11h 31m
Waning Gibbous, 88% of the Moon is Illuminated
Oct 3
Waning Gibbous
Oct 8
Last Quarter
Oct 15
New
Oct 21
First Quarter
Oct 29
Full

Hourly Weather History & Observations

Time (CDT) Temp. Dew Point Humidity Pressure Visibility Wind Dir Wind Speed Gust Speed Precip Events Conditions
12:17 AM 53.6 °F 39.2 °F 58% 29.82 in 10.0 mi South 4.6 mph - N/A   Clear
12:36 AM 53.6 °F 39.2 °F 58% 29.82 in 10.0 mi South 4.6 mph - N/A   Clear
12:57 AM 53.6 °F 39.2 °F 58% 29.83 in 10.0 mi South 5.8 mph - N/A   Clear
1:17 AM 55.4 °F 39.2 °F 54% 29.83 in 10.0 mi South 5.8 mph - N/A   Clear
1:36 AM 55.4 °F 39.2 °F 54% 29.83 in 10.0 mi South 6.9 mph - N/A   Clear
1:57 AM 53.6 °F 39.2 °F 58% 29.83 in 10.0 mi South 5.8 mph - N/A   Clear
2:16 AM 53.6 °F 39.2 °F 58% 29.83 in 10.0 mi South 6.9 mph - N/A   Clear
2:37 AM 53.6 °F 39.2 °F 58% 29.83 in 10.0 mi South 6.9 mph - N/A   Clear
2:56 AM 53.6 °F 39.2 °F 58% 29.83 in 10.0 mi South 5.8 mph - N/A   Clear
3:16 AM 51.8 °F 39.2 °F 62% 29.83 in 10.0 mi South 5.8 mph - N/A   Clear
3:37 AM 51.8 °F 37.4 °F 58% 29.83 in 10.0 mi South 6.9 mph - N/A   Clear
4:16 AM 51.8 °F 37.4 °F 58% 29.83 in 10.0 mi SSW 4.6 mph - N/A   Clear
4:37 AM 50.0 °F 37.4 °F 62% 29.83 in 10.0 mi South 4.6 mph - N/A   Clear
4:56 AM 50.0 °F 37.4 °F 62% 29.83 in 10.0 mi South 3.5 mph - N/A   Clear
5:16 AM 46.4 °F 37.4 °F 71% 29.84 in 10.0 mi Calm Calm - N/A   Clear
5:56 AM 46.4 °F 37.4 °F 71% 29.86 in 10.0 mi Calm Calm - N/A   Clear
6:16 AM 44.6 °F 37.4 °F 76% 29.87 in 10.0 mi Calm Calm - N/A   Clear
6:37 AM 39.2 °F 35.6 °F 87% 29.87 in 10.0 mi Calm Calm - N/A   Clear
6:56 AM 37.4 °F 33.8 °F 87% 29.87 in 10.0 mi Calm Calm - N/A   Clear
7:16 AM 37.4 °F 33.8 °F 87% 29.88 in 10.0 mi Calm Calm - N/A   Clear
7:37 AM 37.4 °F 33.8 °F 87% 29.88 in 10.0 mi Calm Calm - N/A   Clear
7:56 AM 37.4 °F 33.8 °F 87% 29.89 in 10.0 mi Calm Calm - N/A   Clear
8:16 AM 37.4 °F 33.8 °F 87% 29.90 in 10.0 mi Calm Calm - N/A   Clear
8:37 AM 42.8 °F 37.4 °F 81% 29.90 in 10.0 mi Calm Calm - N/A   Clear
8:56 AM 46.4 °F 39.2 °F 76% 29.90 in 10.0 mi Calm Calm - N/A   Clear
9:17 AM 51.8 °F 39.2 °F 62% 29.90 in 10.0 mi Calm Calm - N/A   Clear
9:37 AM 51.8 °F 37.4 °F 58% 29.90 in 10.0 mi West 3.5 mph - N/A   Clear
9:56 AM 53.6 °F 39.2 °F 58% 29.90 in 10.0 mi SW 3.5 mph - N/A   Clear
10:17 AM 55.4 °F 39.2 °F 54% 29.91 in 5.0 mi Calm Calm - N/A   Haze
10:37 AM 57.2 °F 39.2 °F 51% 29.91 in 4.0 mi Calm Calm - N/A   Haze
10:56 AM 57.2 °F 39.2 °F 51% 29.90 in 4.0 mi Calm Calm - N/A   Haze
11:17 AM 60.8 °F 39.2 °F 45% 29.90 in 4.0 mi Calm Calm - N/A   Haze
11:37 AM 62.6 °F 41.0 °F 45% 29.91 in 3.0 mi Calm Calm - N/A   Haze
11:56 AM 64.4 °F 41.0 °F 42% 29.91 in 3.0 mi West 4.6 mph - N/A   Haze
12:17 PM 64.4 °F 41.0 °F 42% 29.91 in 4.0 mi West 4.6 mph - N/A   Haze
12:37 PM 66.2 °F 41.0 °F 40% 29.90 in 4.0 mi Calm Calm - N/A   Haze
12:56 PM 66.2 °F 39.2 °F 37% 29.89 in 5.0 mi Calm Calm - N/A   Haze
1:17 PM 68.0 °F 39.2 °F 35% 29.88 in 5.0 mi South 3.5 mph - N/A   Haze
1:37 PM 69.8 °F 39.2 °F 33% 29.88 in 5.0 mi Calm Calm - N/A   Haze
1:56 PM 69.8 °F 39.2 °F 33% 29.87 in 5.0 mi Calm Calm - N/A   Haze
2:17 PM 69.8 °F 39.2 °F 33% 29.87 in 4.0 mi East 3.5 mph - N/A   Haze
2:37 PM 71.6 °F 37.4 °F 29% 29.87 in 5.0 mi Calm Calm - N/A   Haze
2:56 PM 71.6 °F 37.4 °F 29% 29.87 in 7.0 mi Calm Calm - N/A   Clear
3:17 PM 71.6 °F 37.4 °F 29% 29.87 in 7.0 mi Calm Calm - N/A   Clear
3:36 PM 71.6 °F 35.6 °F 27% 29.88 in 7.0 mi Calm Calm - N/A   Clear
3:56 PM 71.6 °F 35.6 °F 27% 29.89 in 7.0 mi Calm Calm - N/A   Clear
4:16 PM 71.6 °F 33.8 °F 25% 29.88 in 10.0 mi Calm Calm - N/A   Clear
4:36 PM 69.8 °F 37.4 °F 31% 29.88 in 7.0 mi North 6.9 mph - N/A   Clear
4:57 PM 69.8 °F 37.4 °F 31% 29.89 in 7.0 mi North 5.8 mph - N/A   Clear
5:16 PM 69.8 °F 39.2 °F 33% 29.89 in 7.0 mi North 6.9 mph - N/A   Clear
5:57 PM 64.4 °F 44.6 °F 49% 29.90 in 10.0 mi North 5.8 mph - N/A   Clear
6:17 PM 62.6 °F 42.8 °F 48% 29.91 in 10.0 mi North 5.8 mph - N/A   Clear
6:37 PM 62.6 °F 42.8 °F 48% 29.91 in 10.0 mi North 5.8 mph - N/A   Clear
6:56 PM 60.8 °F 42.8 °F 52% 29.92 in 10.0 mi North 3.5 mph - N/A   Clear
7:17 PM 60.8 °F 42.8 °F 52% 29.92 in 10.0 mi North 6.9 mph - N/A   Clear
7:36 PM 59.0 °F 42.8 °F 55% 29.92 in 10.0 mi North 5.8 mph - N/A   Clear
7:57 PM 59.0 °F 42.8 °F 55% 29.92 in 10.0 mi NE 4.6 mph - N/A   Scattered Clouds
8:17 PM 57.2 °F 42.8 °F 59% 29.93 in 10.0 mi North 3.5 mph - N/A   Clear
8:37 PM 57.2 °F 42.8 °F 59% 29.92 in 10.0 mi NE 4.6 mph - N/A   Clear
8:57 PM 57.2 °F 42.8 °F 59% 29.93 in 10.0 mi Calm Calm - N/A   Clear
9:16 PM 55.4 °F 42.8 °F 63% 29.93 in 10.0 mi North 3.5 mph - N/A   Clear
9:37 PM 55.4 °F 42.8 °F 63% 29.94 in 10.0 mi WNW 3.5 mph - N/A   Clear
9:56 PM 55.4 °F 42.8 °F 63% 29.94 in 10.0 mi North 3.5 mph - N/A   Clear
10:17 PM 55.4 °F 42.8 °F 63% 29.93 in 10.0 mi Calm Calm - N/A   Scattered Clouds
10:37 PM 55.4 °F 42.8 °F 63% 29.94 in 10.0 mi Calm Calm - N/A   Mostly Cloudy
10:56 PM 55.4 °F 42.8 °F 63% 29.94 in 10.0 mi Calm Calm - N/A   Scattered Clouds
11:17 PM 55.4 °F 42.8 °F 63% 29.93 in 10.0 mi Calm Calm - N/A   Scattered Clouds
11:36 PM 55.4 °F 42.8 °F 63% 29.93 in 10.0 mi North 3.5 mph - N/A   Scattered Clouds
11:57 PM 55.4 °F 42.8 °F 63% 29.92 in 10.0 mi North 3.5 mph - N/A   Clear